Home   Weather   Town of Fairfield   Past weeks
Flag for USA

Past Weather in Town of Fairfield, Wisconsin, USA — Yesterday and Last 2 Weeks

Now
53 °F

Passing clouds.


Feels Like: 51 °F
Forecast: 73 / 48 °F
Wind: 8 mph from South

Location: Dane County Regional-Truax Field
Current Time: Sep 21, 2020 at 9:23:10 am
Latest Report: Sep 21, 2020 at 7:53 am
Visibility: 10 mi
Pressure30.36 "Hg
Humidity: 64%
Dew Point: 41 °F
Location of Town of FairfieldLocation

Past Weather in Town of Fairfield — Graph

°F

Town of Fairfield Temperature Yesterday

Maximum temperature yesterday: 69 °F (at 3:53 pm)
Minimum temperature yesterday: 42 °F (at 5:53 am)
Average temperature yesterday: 56 °F

High & Low Weather Summary for the Past Weeks

 TemperatureHumidityPressure
High78 °F (Sep 15, 3:53 pm)100% (Sep 8, 5:13 pm)30.44 "Hg (Sep 8, 5:13 pm)
Low37 °F (Sep 19, 6:53 am)38% (Sep 20, 1:53 pm)29.67 "Hg (Sep 6, 7:53 pm)
Average57 °F85%30.18 "Hg
* Reported Sep 6 7:06 am — Sep 21 7:53 am, Town of Fairfield. Weather by CustomWeather, © 2020

Note: Actual official high and low records may vary slightly from our data, if they occured in-between our weather recording intervals... More about our weather records

Town of Fairfield Weather History for the Previous 24 Hours

Scroll right to see more
 ConditionsComfort  
Time TempWeatherWind HumidityBarometerVisibility
7:53 am
Mon, Sep 21
53 °FPassing clouds.8 mph64%30.36 "Hg10 mi
6:53 am50 °FPassing clouds.7 mph71%30.35 "Hg10 mi
5:53 am50 °FPassing clouds.6 mph71%30.33 "Hg10 mi
4:53 am53 °FClear.7 mph64%30.33 "Hg10 mi
3:53 am52 °FClear.5 mph69%30.32 "Hg10 mi
2:53 am54 °FClear.6 mph67%30.32 "Hg10 mi
1:53 am54 °FClear.8 mph72%30.32 "Hg10 mi
12:53 am54 °FClear.6 mph74%30.32 "Hg10 mi
11:53 pm
Sun, Sep 20
55 °FClear.7 mph72%30.33 "Hg10 mi
10:53 pm56 °FPassing clouds.6 mph67%30.34 "Hg10 mi
9:53 pm56 °FPassing clouds.8 mph62%30.35 "Hg10 mi
6:53 pm63 °FPartly sunny.7 mph48%30.32 "Hg10 mi
5:53 pm67 °FPartly sunny.10 mph39%30.33 "Hg10 mi
4:53 pm68 °FPartly sunny.12 mph39%30.32 "Hg10 mi
3:53 pm69 °FPartly sunny.14 mph38%30.33 "Hg10 mi
2:53 pm68 °FPartly sunny.10 mph39%30.35 "Hg10 mi
1:53 pm68 °FPassing clouds.15 mph38%30.36 "Hg10 mi
12:53 pm67 °FSunny.13 mph41%30.38 "Hg10 mi
11:53 am65 °FSunny.14 mph44%30.39 "Hg10 mi
10:53 am62 °FSunny.12 mph52%30.40 "Hg10 mi
9:53 am59 °FSunny.8 mph60%30.41 "Hg10 mi
Weather by CustomWeather, © 2020

See weather overview